EW3665 Weather Reports


time (UTC)temp
F
wind
direction
speed
knots
gust
knots
rain 1hr
in
rain 24hr
in
rain mn
in
humidity
%
barometer
mb
20260507053041 78 109 2.6 6.1 0.00 0.00 0.00 83 1011.6
20260507051540 78 32 2.6 6.1 0.00 0.00 0.00 83 1011.7
20260507050038 78 119 1.7 5.2 0.00 0.00 0.00 83 1011.8
20260507044537 78 58 1.7 7.8 0.00 0.00 0.00 83 1012.0
20260507043038 78 38 2.6 5.2 0.00 0.00 0.00 82 1012.1
20260507041523 78 79 2.6 8.7 0.00 0.00 0.00 82 1012.2
20260507040022 79 34 1.7 5.2 0.00 0.00 0.00 82 1012.2
20260507034532 79 49 2.6 7.0 0.00 0.00 0.00 81 1012.2
20260507033020 79 139 2.6 7.8 0.00 0.00 0.00 81 1012.2
20260507031519 79 67 1.7 6.1 0.00 0.00 0.00 80 1012.2
20260507030017 79 64 2.6 7.0 0.00 0.00 0.00 80 1012.2
20260507024516 80 96 2.6 9.6 0.00 0.00 0.00 79 1012.2
20260507023015 80 161 2.6 7.0 0.00 0.00 0.00 79 1012.2
20260507021604 80 123 2.6 8.7 0.00 0.00 0.00 78 1012.0
20260507020054 80 52 2.6 7.8 0.00 0.00 0.00 77 1012.0
20260507014541 81 67 3.5 7.8 0.00 0.00 0.00 76 1012.0
20260507013040 81 98 3.5 7.8 0.00 0.00 0.00 74 1011.7
20260507011539 81 57 1.7 8.7 0.00 0.00 0.00 73 1011.4
20260507010039 82 65 3.5 7.8 0.00 0.00 0.00 72 1011.3
20260507004533 82 59 2.6 7.8 0.00 0.00 0.00 74 1011.1
20260507003032 82 142 1.7 7.0 0.00 0.00 0.00 76 1010.9
20260507001533 83 56 1.7 7.8 0.00 0.00 0.00 75 1010.7
20260507000029 83 94 3.5 10.4 0.00 0.00 0.00 73 1010.5
20260506234525 84 115 2.6 9.6 0.00 0.00 0.00 72 1010.1
20260506233009 84 54 4.3 9.6 0.00 0.00 0.00 70 1010.0
20260506231506 84 360 1.7 7.8 0.00 0.00 0.00 69 1009.6
20260506230004 85 61 2.6 6.1 0.00 0.00 0.00 68 1009.4
20260506224505 85 19 3.5 9.6 0.00 0.00 0.00 67 1009.3
20260506223105 86 84 3.5 9.6 0.00 0.00 0.00 65 1009.3
20260506221558 86 32 1.7 9.6 0.00 0.00 0.00 65 1009.1
20260506220108 87 56 4.3 9.6 0.00 0.00 0.00 65 1008.8
20260506214556 87 98 4.3 13.0 0.00 0.00 0.00 65 1008.7
20260506213038 88 57 3.5 12.2 0.00 0.00 0.00 64 1008.7
20260506211545 88 71 4.3 11.3 0.00 0.00 0.00 64 1008.4
20260506210025 89 26 4.3 13.9 0.00 0.00 0.00 65 1008.4
20260506204525 89 78 6.1 17.4 0.00 0.00 0.00 64 1008.4
20260506203025 89 108 6.1 13.0 0.00 0.00 0.00 61 1008.4
20260506201521 90 19 6.1 13.9 0.00 0.00 0.00 61 1008.3
20260506200017 0 0.0 0.0 0.00 0.00 0.00 1008.3
20260506194615 0 0.0 0.0 0.00 0.00 0.00 1008.4
20260506193008 0 0.0 0.0 0.00 0.00 0.00 1008.3
20260506191504 0 0.0 0.0 0.00 0.00 0.00 1008.5
20260506190043 0 0.0 0.0 0.00 0.00 0.00 1008.6
20260506184539 0 0.0 0.0 0.00 0.00 0.00 1008.7
20260506183021 0 0.0 0.0 0.00 0.00 0.00 1008.9
20260506181517 0 0.0 0.0 0.00 0.00 0.00 1009.2
20260506180012 0 0.0 0.0 0.00 0.00 0.00 1009.3
20260506174508 0 0.0 0.0 0.00 0.00 0.00 1009.7
20260506173004 0 0.0 0.0 0.00 0.00 0.00 1009.9
20260506171606 0 0.0 0.0 0.00 0.00 0.00 1010.1
20260506170104 0 0.0 0.0 0.00 0.00 0.00 1010.4
20260506164552 0 0.0 0.0 0.00 0.00 0.00 1010.8
20260506163035 0 0.0 0.0 0.00 0.00 0.00 1011.1
20260506161532 0 0.0 0.0 0.00 0.00 0.00 1011.5
20260506160036 0 0.0 0.0 0.00 0.00 0.00 1011.7
20260506154524 0 0.0 0.0 0.00 0.03 0.00 1011.9
20260506153117 0 0.0 0.0 0.00 0.03 0.00 1012.1
20260506151515 0 0.0 0.0 0.00 0.03 0.00 1012.3
20260506150008 0 0.0 0.0 0.00 0.03 0.00 1012.6
20260506144503 0 0.0 0.0 0.00 0.03 0.00 1012.8
20260506143042 0 0.0 0.0 0.00 0.03 0.00 1012.9
20260506141538 0 0.0 0.0 0.00 0.03 0.00 1013.1
20260506134522 86 84 2.6 9.6 0.00 0.03 0.03 68 1013.3
20260506133017 85 84 1.7 7.0 0.00 0.03 0.03 71 1013.5
20260506131536 84 157 2.6 8.7 0.00 0.03 0.03 72 1013.5
20260506130027 84 87 1.7 5.2 0.00 0.03 0.03 72 1013.4
20260506124516 84 88 1.7 6.1 0.00 0.03 0.03 73 1013.4
20260506123015 82 149 2.6 7.0 0.00 0.03 0.03 76 1013.2
20260506121515 81 44 2.6 6.1 0.00 0.03 0.03 78 1013.0
20260506120007 80 43 2.6 7.0 0.00 0.03 0.03 81 1012.9
20260506114502 80 66 3.5 8.7 0.00 0.03 0.03 81 1013.0
20260506113001 80 64 0.9 5.2 0.00 0.03 0.03 84 1012.8
20260506111600 79 69 1.7 5.2 0.00 0.03 0.03 85 1012.7
20260506110104 78 85 0.9 4.3 0.00 0.03 0.03 88 1012.5
20260506104558 77 73 0.9 2.6 0.00 0.03 0.03 90 1012.4
20260506103057 76 65 0.0 1.7 0.00 0.03 0.03 91 1012.1
20260506101556 76 360 0.0 1.7 0.00 0.03 0.03 91 1011.9
20260506100044 76 63 0.0 0.0 0.00 0.03 0.03 91 1011.9
20260506094554 76 63 0.0 1.7 0.00 0.03 0.03 90 1011.9
20260506093042 76 63 0.0 1.7 0.00 0.03 0.03 90 1011.8
20260506091543 76 63 0.0 0.9 0.00 0.03 0.03 90 1011.7
20260506090043 77 63 0.0 1.7 0.00 0.03 0.03 89 1011.6
20260506084543 77 63 0.0 3.5 0.00 0.03 0.03 89 1011.3
20260506083040 77 65 0.0 3.5 0.00 0.03 0.03 89 1011.3
20260506081539 77 49 0.9 3.5 0.00 0.03 0.03 89 1011.2
20260506073009 78 47 0.0 3.5 0.00 0.03 0.03 87 1011.2
20260506071511 77 42 0.9 4.3 0.00 0.03 0.03 87 1011.3
20260506061506 77 41 0.9 4.3 0.00 0.03 0.03 86 1011.0